Tracking 19199 objects as of 25-Jun-2018
HD Live streaming from Space Station
objects crossing your sky now

ZY 3

Track ZY 3 now!
10-day predictions
ZY 3 is classified as:


NORAD ID: 38046
Int'l Code: 2012-001A
Perigee: 508.0 km
Apogee: 510.2 km
Inclination: 97.5 °
Period: 94.7 minutes
Semi major axis: 6880 km
RCS: 5.391 m2 (large)
Launch date: January 9, 2012
Source: People's Republic of China (PRC)
Launch site: Taiyaun Space Center, China (TSC)
aabbcc
Your satellite tracking list
Your tracking list is empty




NASA's NSSDC Master Catalog

Two Line Element Set (TLE):
1 38046U 12001A   18176.13947241  .00000590  00000-0  29531-4 0  9997
2 38046  97.4933 247.4483 0001607 157.1509 286.3418 15.21281931358654
Source of the keplerian elements: AFSPC